Weather History for Texarkana, AR

Change the Weather History Date:

Thursday, May 16, 2013

  Actual Average Record
Temperature  
Mean Temperature 66 °F 72 °F  
Max Temperature 69 °F 82 °F 94 °F (1902)
Min Temperature 63 °F 61 °F 44 °F (1926)
Degree Days  
Heating Degree Days 0 0  
Month to date heating degree days 51 12  
Since 1 July heating degree days 2550 2615  
Cooling Degree Days 1 7  
Month to date cooling degree days 39 89  
Year to date cooling degree days 121 186  
Growing Degree Days 16 (Base 50)    
Moisture  
Dew Point 64 °F    
Average Humidity 92    
Maximum Humidity 100    
Minimum Humidity 84    
Precipitation  
Precipitation 0.32 in 0.17 in 3.49 in (1981)
Month to date precipitation 0.94 2.81  
Year to date precipitation 11.76 18.34  
Snow  
Snow 0.00 in - - ()
Month to date snowfall 0.0  
Since 1 July snowfall 2.1  
Snow Depth 0.00 in    
Sea Level Pressure  
Sea Level Pressure 29.87 in    
Wind  
Wind Speed 6 mph (SE)    
Max Wind Speed 24 mph    
Max Gust Speed 33 mph    
Visibility 5 miles    
Events Rain , Thunderstorm    
T = Trace of Precipitation, MM = Missing Value Source: NWS Daily Summary

Daily Weather History Graph

Daily Weather History Graph

Search for Another Location

Airport:

Trip Planner

Search our weather history database for the weather conditions in past years. The results will help you decide how hot, cold, wet, or windy it might be!

Date:

Astronomy

May. 16, 2013 Rise Set
Actual Time 6:14 AM CDT 8:10 PM CDT
Civil Twilight 5:47 AM CDT 8:37 PM CDT
Nautical Twilight 5:13 AM CDT 9:11 PM CDT
Astronomical Twilight 4:38 AM CDT 9:46 PM CDT
Moon 11:43 AM CDT (5/16) 12:36 AM CDT (5/16)
Length of Visible Light 14h 50m
Length of Day
13h 55m
Waxing Crescent, 36% of the Moon is Illuminated
May 16
Waxing Crescent
May 17
First Quarter
May 24
Full
May 31
Last Quarter
Jun 8
New

Hourly Weather History & Observations

Time (CDT) Temp. Dew Point Humidity Pressure Visibility Wind Dir Wind Speed Gust Speed Precip Events Conditions
12:53 AM 63.0 °F 59.0 °F 87% 29.91 in 10.0 mi SE 6.9 mph - 0.01 in   Scattered Clouds
1:24 AM 64.4 °F 60.8 °F 88% 29.95 in 10.0 mi Variable 4.6 mph - N/A Thunderstorm Overcast
1:33 AM 64.4 °F 60.8 °F 88% 29.96 in 10.0 mi WNW 9.2 mph 24.2 mph N/A Thunderstorm Overcast
1:42 AM 64.4 °F 60.8 °F 88% 29.95 in 2.5 mi WNW 17.3 mph 31.1 mph 0.00 in Rain , Thunderstorm Heavy Thunderstorms and Rain
1:45 AM 64.4 °F 60.8 °F 88% 29.95 in 1.8 mi West 17.3 mph 31.1 mph 0.01 in Rain , Thunderstorm Heavy Thunderstorms and Rain
1:53 AM 64.0 °F 62.1 °F 93% 29.94 in 1.0 mi WSW 9.2 mph - 0.01 in Rain , Thunderstorm Heavy Thunderstorms and Rain
2:01 AM 64.4 °F 62.6 °F 94% 29.95 in 1.5 mi SW 6.9 mph - 0.00 in Rain , Thunderstorm Heavy Thunderstorms and Rain
2:21 AM 64.4 °F 62.6 °F 94% 29.93 in 2.5 mi South 8.1 mph - N/A Rain , Thunderstorm Heavy Rain
2:30 AM 64.4 °F 62.6 °F 94% 29.92 in 3.0 mi South 9.2 mph - N/A Rain , Thunderstorm Rain
2:49 AM 64.4 °F 62.6 °F 94% 29.90 in 4.0 mi SSE 13.8 mph - N/A Rain Rain
2:53 AM 64.0 °F 62.1 °F 93% 29.88 in 5.0 mi SSE 13.8 mph - N/A Rain Rain
3:53 AM 64.0 °F 62.1 °F 93% 29.88 in 8.0 mi South 10.4 mph - 0.02 in Rain Light Rain
4:53 AM 64.0 °F 62.1 °F 93% 29.84 in 6.0 mi South 12.7 mph - 0.03 in Rain Rain
5:53 AM 64.9 °F 63.0 °F 93% 29.80 in 9.0 mi SSE 19.6 mph 33.4 mph 0.02 in Rain Light Rain
6:36 AM 64.4 °F 62.6 °F 94% 29.80 in 8.0 mi SSE 12.7 mph 28.8 mph 0.01 in Rain Light Rain
6:51 AM 66.2 °F 62.6 °F 88% 29.84 in 8.0 mi South 10.4 mph 18.4 mph 0.02 in   Overcast
6:53 AM 66.0 °F 63.0 °F 90% 29.83 in 8.0 mi SSW 9.2 mph 18.4 mph 0.02 in   Overcast
7:45 AM 66.2 °F 64.4 °F 94% 29.86 in 7.0 mi SSW 8.1 mph - 0.01 in   Overcast
7:53 AM 66.0 °F 64.0 °F 93% 29.85 in 7.0 mi SSW 6.9 mph - 0.02 in   Overcast
8:15 AM 66.2 °F 64.4 °F 94% 29.88 in 7.0 mi SW 5.8 mph - N/A   Overcast
8:53 AM 66.9 °F 64.9 °F 93% 29.88 in 8.0 mi SW 5.8 mph - 0.01 in   Overcast
9:02 AM 66.2 °F 64.4 °F 94% 29.89 in 9.0 mi SW 9.2 mph - 0.01 in   Overcast
9:42 AM 66.2 °F 64.4 °F 94% 29.88 in 7.0 mi SW 4.6 mph - 0.02 in Rain Light Rain
9:53 AM 68.0 °F 64.0 °F 87% 29.88 in 10.0 mi SSW 3.5 mph - 0.02 in   Overcast
10:53 AM 69.1 °F 64.0 °F 84% 29.89 in 9.0 mi SW 4.6 mph - 0.02 in   Overcast
11:01 AM 69.8 °F 64.4 °F 83% 29.90 in 9.0 mi SW 4.6 mph - N/A   Overcast
11:43 AM 69.8 °F 64.4 °F 83% 29.91 in 6.0 mi Calm Calm - 0.01 in Rain Light Rain
11:53 AM 69.1 °F 64.0 °F 84% 29.90 in 9.0 mi West 3.5 mph - 0.01 in Rain Light Rain
12:06 PM 69.8 °F 64.4 °F 83% 29.91 in 10.0 mi WSW 4.6 mph - 0.01 in   Overcast
12:53 PM 68.0 °F 64.9 °F 90% 29.90 in 8.0 mi Calm Calm - 0.02 in Rain Light Rain
1:10 PM 66.2 °F 64.4 °F 94% 29.91 in 7.0 mi North 6.9 mph - 0.00 in Rain , Thunderstorm Light Rain
1:25 PM 66.2 °F 64.4 °F 94% 29.90 in 5.0 mi North 5.8 mph - 0.01 in Rain , Thunderstorm Light Thunderstorms and Rain
1:53 PM 66.0 °F 64.0 °F 93% 29.87 in 2.5 mi ENE 8.1 mph - 0.01 in Rain , Thunderstorm Thunderstorms and Rain
2:14 PM 66.2 °F 64.4 °F 94% 29.84 in 3.0 mi East 8.1 mph - 0.01 in Rain Light Rain
2:40 PM 66.2 °F 64.4 °F 94% 29.86 in 5.0 mi NNE 3.5 mph - 0.01 in Rain Light Rain
2:53 PM 66.0 °F 64.9 °F 96% 29.85 in 5.0 mi ESE 3.5 mph - 0.01 in Rain Light Rain
3:01 PM 66.2 °F 64.4 °F 94% 29.86 in 6.0 mi Calm Calm - 0.01 in Rain Light Rain
3:36 PM 66.2 °F 64.4 °F 94% 29.84 in 3.0 mi SE 6.9 mph - 0.01 in Rain Light Rain
3:53 PM 68.0 °F 66.0 °F 93% 29.83 in 4.0 mi SSE 11.5 mph - 0.02 in Rain Light Rain
4:06 PM 68.0 °F 66.2 °F 94% 29.83 in 6.0 mi SE 5.8 mph - 0.00 in Rain Light Rain
5:32 PM 66.2 °F 66.2 °F 100% 29.83 in 4.0 mi ENE 3.5 mph - 0.00 in Rain Light Rain
5:53 PM 68.0 °F 66.0 °F 93% 29.81 in 5.0 mi ENE 4.6 mph - 0.00 in   Overcast
6:32 PM 68.0 °F 66.2 °F 94% 29.82 in 5.0 mi ENE 3.5 mph - 0.01 in   Overcast
6:53 PM 68.0 °F 66.0 °F 93% 29.81 in 6.0 mi NE 3.5 mph - 0.01 in   Overcast
7:07 PM 68.0 °F 66.2 °F 94% 29.82 in 5.0 mi NE 4.6 mph - N/A   Overcast
7:53 PM 66.9 °F 66.0 °F 97% 29.81 in 3.0 mi ENE 3.5 mph - 0.01 in   Overcast
8:03 PM 66.2 °F 66.2 °F 100% 29.82 in 3.0 mi NE 3.5 mph - N/A   Overcast
8:12 PM 66.2 °F 66.2 °F 100% 29.82 in 2.5 mi ENE 4.6 mph - N/A   Overcast
8:27 PM 66.2 °F 66.2 °F 100% 29.82 in 3.0 mi ENE 3.5 mph - N/A   Overcast
8:53 PM 66.9 °F 66.0 °F 97% 29.82 in 3.0 mi East 3.5 mph - 0.01 in   Overcast
9:17 PM 66.2 °F 66.2 °F 100% 29.83 in 2.5 mi Calm Calm - N/A   Overcast
9:34 PM 66.2 °F 66.2 °F 100% 29.83 in 2.5 mi East 3.5 mph - 0.00 in Rain Light Rain
9:45 PM 66.2 °F 66.2 °F 100% 29.84 in 3.0 mi ESE 4.6 mph - 0.00 in Rain Light Rain
9:53 PM 66.9 °F 66.0 °F 97% 29.83 in 3.0 mi ENE 4.6 mph - 0.00 in   Overcast
10:04 PM 66.2 °F 66.2 °F 100% 29.84 in 2.5 mi ENE 3.5 mph - N/A   Overcast
10:13 PM 66.2 °F 66.2 °F 100% 29.85 in 2.5 mi NE 3.5 mph - N/A   Overcast
10:53 PM 66.9 °F 66.0 °F 97% 29.84 in 2.0 mi NE 3.5 mph - 0.01 in Rain Light Rain
11:00 PM 66.2 °F 66.2 °F 100% 29.85 in 2.0 mi ENE 3.5 mph - 0.00 in Rain Light Rain
11:53 PM 66.9 °F 66.0 °F 97% 29.84 in 2.0 mi ENE 4.6 mph - 0.00 in   Overcast